When you browse on this site, cookies collect data to enhance your experience and personalize the content and advertising you see.
Visit our Privacy Policy to learn more. By continuing to use the site, you agree to this use of cookies and data.
  • en Suisse
  • Liste des pays
  • À 7 jours
  • Température de l'eau
  • Carte satellitaire
  • Carte météo
  • Widgets météo
  • user-avatar
    Se connecter

    Météo par heure à La-Plata

    Ce jour, 22 Mars, Vendredi

    Heure Température Précipitation Vent Pression Humidité
    00:00 +16°C° 0 mm 3 m/s 764 mmHg 66%
    01:00 +16°C° 0 mm 3 m/s 764 mmHg 67%
    02:00 +16°C° 0 mm 3 m/s 764 mmHg 68%
    03:00 +16°C° 0 mm 3 m/s 764 mmHg 70%
    04:00 +16°C° 0 mm 3 m/s 764 mmHg 71%
    05:00 +16°C° 0 mm 3 m/s 763 mmHg 72%
    06:00 +17°C° 0 mm 3 m/s 764 mmHg 69%
    07:00 +18°C° 0 mm 3 m/s 764 mmHg 67%
    08:00 +19°C° 0 mm 3 m/s 764 mmHg 64%
    09:00 +20°C° 0 mm 3 m/s 764 mmHg 59%
    10:00 +21°C° 0 mm 2 m/s 764 mmHg 54%
    11:00 +23°C° 0 mm 2 m/s 764 mmHg 49%
    12:00 +23°C° 0 mm 2 m/s 763 mmHg 47%
    13:00 +24°C° 0 mm 2 m/s 763 mmHg 45%
    14:00 +24°C° 0 mm 1 m/s 762 mmHg 42%
    15:00 +24°C° 0 mm 2 m/s 762 mmHg 45%
    16:00 +23°C° 0 mm 2 m/s 762 mmHg 48%
    17:00 +23°C° 0 mm 2 m/s 761 mmHg 50%
    18:00 +21°C° 0 mm 2 m/s 762 mmHg 52%
    19:00 +19°C° 0 mm 2 m/s 762 mmHg 55%
    20:00 +18°C° 0 mm 2 m/s 762 mmHg 57%
    21:00 +18°C° 0 mm 3 m/s 762 mmHg 59%
    22:00 +18°C° 0 mm 3 m/s 762 mmHg 60%
    23:00 +18°C° 0 mm 3 m/s 762 mmHg 62%

    Demain, 23 Mars, Samedi

    Heure Température Précipitation Vent Pression Humidité
    00:00 +18°C° 0 mm 3 m/s 762 mmHg 67%
    01:00 +18°C° 0 mm 3 m/s 762 mmHg 72%
    02:00 +17°C° 0 mm 3 m/s 762 mmHg 77%
    03:00 +17°C° 0 mm 3 m/s 761 mmHg 77%
    04:00 +17°C° 0 mm 3 m/s 761 mmHg 78%
    05:00 +17°C° 0 mm 3 m/s 761 mmHg 78%
    06:00 +18°C° 0 mm 3 m/s 761 mmHg 72%
    07:00 +20°C° 0 mm 3 m/s 761 mmHg 66%
    08:00 +21°C° 0 mm 3 m/s 762 mmHg 60%
    09:00 +22°C° 0 mm 4 m/s 761 mmHg 54%
    10:00 +25°C° 0 mm 4 m/s 761 mmHg 49%
    11:00 +26°C° 0 mm 4 m/s 761 mmHg 43%
    12:00 +26°C° 0 mm 4 m/s 760 mmHg 41%
    13:00 +27°C° 0 mm 4 m/s 760 mmHg 39%
    14:00 +27°C° 0 mm 4 m/s 759 mmHg 37%
    15:00 +27°C° 0 mm 4 m/s 759 mmHg 40%
    16:00 +26°C° 0 mm 4 m/s 758 mmHg 43%
    17:00 +26°C° 0 mm 4 m/s 758 mmHg 46%
    18:00 +25°C° 0 mm 5 m/s 758 mmHg 49%
    19:00 +23°C° 0 mm 5 m/s 757 mmHg 51%
    20:00 +22°C° 0 mm 6 m/s 757 mmHg 54%
    21:00 +23°C° 0 mm 6 m/s 757 mmHg 54%
    22:00 +23°C° 0 mm 6 m/s 757 mmHg 54%
    23:00 +23°C° 0 mm 6 m/s 757 mmHg 54%

    Après-demain, 24 Mars, Dimanche

    Heure Température Précipitation Vent Pression Humidité
    00:00 +22°C° 0.1 mm 7 m/s 757 mmHg 55%
    01:00 +22°C° 0.1 mm 7 m/s 757 mmHg 56%
    02:00 +21°C° 0.1 mm 7 m/s 757 mmHg 57%
    03:00 +20°C° 0 mm 6 m/s 757 mmHg 60%
    04:00 +19°C° 0 mm 5 m/s 757 mmHg 64%
    05:00 +17°C° 0 mm 5 m/s 758 mmHg 67%
    06:00 +17°C° 0 mm 5 m/s 758 mmHg 62%
    07:00 +19°C° 0 mm 6 m/s 759 mmHg 58%
    08:00 +19°C° 0 mm 6 m/s 759 mmHg 53%
    09:00 +20°C° 0 mm 6 m/s 759 mmHg 51%
    10:00 +21°C° 0 mm 7 m/s 759 mmHg 48%
    11:00 +22°C° 0 mm 7 m/s 759 mmHg 46%
    12:00 +22°C° 0 mm 7 m/s 759 mmHg 45%
    13:00 +23°C° 0 mm 7 m/s 758 mmHg 44%
    14:00 +23°C° 0 mm 8 m/s 758 mmHg 43%
    15:00 +22°C° 0 mm 7 m/s 758 mmHg 45%
    16:00 +22°C° 0 mm 7 m/s 758 mmHg 47%
    17:00 +21°C° 0 mm 7 m/s 758 mmHg 50%
    18:00 +18°C° 0 mm 7 m/s 758 mmHg 52%
    19:00 +17°C° 0 mm 7 m/s 759 mmHg 54%
    20:00 +16°C° 0 mm 7 m/s 759 mmHg 56%
    21:00 +15°C° 0 mm 7 m/s 759 mmHg 57%
    22:00 +15°C° 0 mm 7 m/s 759 mmHg 58%
    23:00 +15°C° 0 mm 7 m/s 759 mmHg 59%

    25 Mars, Lundi

    Heure Température Précipitation Vent Pression Humidité
    00:00 +14°C° 0 mm 7 m/s 759 mmHg 63%
    01:00 +14°C° 0 mm 7 m/s 759 mmHg 67%
    02:00 +14°C° 0 mm 7 m/s 759 mmHg 72%
    03:00 +14°C° 0 mm 7 m/s 759 mmHg 74%
    04:00 +12°C° 0 mm 7 m/s 759 mmHg 76%
    05:00 +12°C° 0 mm 7 m/s 759 mmHg 77%
    06:00 +14°C° 0 mm 7 m/s 759 mmHg 76%
    07:00 +15°C° 0 mm 7 m/s 760 mmHg 75%
    08:00 +17°C° 0 mm 7 m/s 760 mmHg 74%
    09:00 +17°C° 0.1 mm 7 m/s 760 mmHg 70%
    10:00 +18°C° 0.1 mm 7 m/s 761 mmHg 66%
    11:00 +20°C° 0.1 mm 7 m/s 761 mmHg 62%
    12:00 +21°C° 0 mm 6 m/s 761 mmHg 59%
    13:00 +21°C° 0 mm 6 m/s 761 mmHg 56%
    14:00 +22°C° 0 mm 6 m/s 761 mmHg 53%
    15:00 +21°C° 0 mm 6 m/s 761 mmHg 55%
    16:00 +21°C° 0 mm 5 m/s 761 mmHg 57%
    17:00 +20°C° 0 mm 5 m/s 762 mmHg 60%
    18:00 +19°C° 0 mm 5 m/s 762 mmHg 67%
    19:00 +17°C° 0 mm 5 m/s 763 mmHg 74%
    20:00 +15°C° 0 mm 5 m/s 763 mmHg 81%
    21:00 +15°C° 0 mm 5 m/s 764 mmHg 83%
    22:00 +14°C° 0 mm 5 m/s 764 mmHg 86%
    23:00 +14°C° 0 mm 5 m/s 764 mmHg 89%

    26 Mars, Mardi

    Heure Température Précipitation Vent Pression Humidité
    00:00 +13°C° 0 mm 5 m/s 764 mmHg 89%
    01:00 +13°C° 0 mm 5 m/s 764 mmHg 89%
    02:00 +13°C° 0 mm 5 m/s 765 mmHg 90%
    03:00 +13°C° 0 mm 5 m/s 765 mmHg 89%
    04:00 +13°C° 0 mm 5 m/s 765 mmHg 89%
    05:00 +13°C° 0 mm 5 m/s 765 mmHg 88%
    06:00 +14°C° 0.1 mm 5 m/s 766 mmHg 83%
    07:00 +15°C° 0.1 mm 5 m/s 766 mmHg 78%
    08:00 +16°C° 0.1 mm 6 m/s 767 mmHg 73%
    09:00 +17°C° 0.1 mm 6 m/s 767 mmHg 67%
    10:00 +19°C° 0.1 mm 5 m/s 767 mmHg 62%
    11:00 +21°C° 0.1 mm 5 m/s 767 mmHg 57%
    12:00 +20°C° 0.2 mm 5 m/s 767 mmHg 60%
    13:00 +20°C° 0.2 mm 5 m/s 767 mmHg 63%
    14:00 +19°C° 0.2 mm 5 m/s 767 mmHg 66%
    15:00 +20°C° 0 mm 6 m/s 767 mmHg 65%
    16:00 +20°C° 0 mm 6 m/s 767 mmHg 63%
    17:00 +20°C° 0 mm 6 m/s 767 mmHg 62%
    18:00 +19°C° 0 mm 6 m/s 767 mmHg 66%
    19:00 +17°C° 0 mm 6 m/s 768 mmHg 70%
    20:00 +16°C° 0 mm 5 m/s 768 mmHg 74%
    21:00 +15°C° 0.1 mm 5 m/s 768 mmHg 76%
    22:00 +15°C° 0.1 mm 5 m/s 768 mmHg 78%
    23:00 +15°C° 0.1 mm 5 m/s 769 mmHg 80%

    27 Mars, Mercredi

    Heure Température Précipitation Vent Pression Humidité
    00:00 +15°C° 0.1 mm 5 m/s 769 mmHg 79%
    01:00 +17°C° 0.1 mm 4 m/s 769 mmHg 78%
    02:00 +17°C° 0.1 mm 4 m/s 769 mmHg 77%
    03:00 +17°C° 0 mm 4 m/s 769 mmHg 76%
    04:00 +17°C° 0 mm 4 m/s 769 mmHg 75%
    05:00 +17°C° 0 mm 4 m/s 769 mmHg 75%
    06:00 +17°C° 0 mm 5 m/s 769 mmHg 71%
    07:00 +19°C° 0 mm 5 m/s 769 mmHg 68%
    08:00 +19°C° 0 mm 6 m/s 769 mmHg 65%
    09:00 +20°C° 0 mm 6 m/s 769 mmHg 61%
    10:00 +21°C° 0 mm 6 m/s 769 mmHg 57%
    11:00 +22°C° 0 mm 6 m/s 769 mmHg 53%
    12:00 +23°C° 0 mm 5 m/s 768 mmHg 52%
    13:00 +23°C° 0 mm 5 m/s 768 mmHg 50%
    14:00 +25°C° 0 mm 5 m/s 767 mmHg 48%
    15:00 +23°C° 0 mm 5 m/s 767 mmHg 50%
    16:00 +23°C° 0 mm 5 m/s 767 mmHg 52%
    17:00 +22°C° 0 mm 4 m/s 767 mmHg 53%
    18:00 +22°C° 0 mm 5 m/s 767 mmHg 57%
    19:00 +21°C° 0 mm 5 m/s 767 mmHg 60%
    20:00 +20°C° 0 mm 5 m/s 767 mmHg 64%
    21:00 +20°C° 0 mm 6 m/s 767 mmHg 65%
    22:00 +20°C° 0 mm 7 m/s 767 mmHg 65%
    23:00 +20°C° 0 mm 7 m/s 767 mmHg 66%
    Voir plus